Location: Monroe
(41.9160°N, 83.3980°W)
Time: 17:24:58
(UTC-04:00)

Amateur Radio Satellites - All Passes

Search period start: 24 April 2014 16:54
Search period end: 25 April 2014 16:54
Location: Monroe, 41.9160°N, 83.3980°W

Satellite Date Start Highest point End Downlink Frequencies (MHz)
Time Altitude Azimuth
Gurwin Techsat 1B 24 Apr 16:56:50 17:00:51 22° 267° (W) 17:04:53 435.225 FM
OPAL 24 Apr 17:26:14 17:30:56 35° 295° (WNW) 17:35:37 ?
SO-50 24 Apr 17:29:53 17:30:24 10° 328° (NNW) 17:30:55 436.795 FM
AO-7 24 Apr 17:29:56 17:38:09 68° 255° (WSW) 17:46:25 29.400 - 29.500 MHz
UOSAT-12 24 Apr 17:35:48 17:40:21 70° 305° (NW) 17:45:01 437.025 FM, 437.400 FM
TMSAT-1 24 Apr 17:44:15 17:45:50 11° 272° (W) 17:47:26 436.925 FM
Uosat F 24 Apr 17:55:27 17:59:12 21° 267° (W) 18:02:58 435.120 FM
ISS 24 Apr 18:13:44 18:15:59 17° 8° (N) 18:18:15 145.800 FM
Hamsat 24 Apr 18:36:48 18:40:51 48° 73° (ENE) 18:44:58 145.90 MHz
Saudisat 1A 24 Apr 18:44:23 18:48:32 38° 50° (NE) 18:52:37 436.775 MHz
RS-15 24 Apr 18:48:12 18:53:31 15° 263° (W) 18:58:54 29.354 - 29.394 USB, Beacon 29.352 USB
UOSAT-12 24 Apr 19:19:13 19:21:23 13° 325° (NW) 19:23:34 437.025 FM, 437.400 FM
JAS-2 24 Apr 19:21:24 19:26:47 51° 71° (ENE) 19:31:49 435.800 - 435.900 CW/SSB, 435.910 FM
SO-67 24 Apr 19:25:42 19:28:40 26° 71° (ENE) 19:31:39 435.3500 MHz FM
AO-7 24 Apr 19:29:57 19:32:24 11° 274° (W) 19:34:52 29.400 - 29.500 MHz
HO-68 24 Apr 19:46:43 19:49:54 14° 50° (NE) 19:53:05 435.675 MHz FM
ISS 24 Apr 19:50:09 19:53:22 41° 28° (NNE) 19:56:34 145.800 FM
STRAND 1 24 Apr 20:13:10 20:18:15 67° 102° (ESE) 20:23:19 ?
Hamsat 24 Apr 20:14:45 20:17:07 15° 269° (W) 20:19:30 145.90 MHz
Saudisat 1A 24 Apr 20:24:24 20:27:56 24° 247° (WSW) 20:31:25 436.775 MHz
MaSat-1 24 Apr 20:55:39 20:58:16 36° 113° (ESE) 21:00:39 437.345 MHz
SO-67 24 Apr 20:59:27 21:01:50 17° 267° (W) 21:04:13 435.3500 MHz FM
JAS-2 24 Apr 21:08:13 21:12:10 20° 267° (W) 21:15:57 435.800 - 435.900 CW/SSB, 435.910 FM
ISS 24 Apr 21:27:06 21:29:58 26° 225° (SW) 21:32:48 145.800 FM
HO-68 24 Apr 21:29:14 21:36:16 66° 69° (ENE) 21:43:21 435.675 MHz FM
STRAND 1 24 Apr 21:53:49 21:56:54 16° 299° (WNW) 21:59:58 ?
Oscar 11 24 Apr 22:06:50 22:10:56 45° 72° (ENE) 22:15:04 145.825 FM, Beacon 2401.500 USB
FUNcube-1 24 Apr 22:15:34 22:18:22 18° 66° (ENE) 22:21:10 145.950 - 145.970 MHz USB
SO-50 24 Apr 22:35:41 22:39:19 22° 43° (NE) 22:42:58 436.795 FM
HO-68 24 Apr 23:18:58 23:24:28 24° 267° (W) 23:30:01 435.675 MHz FM
Sapphire 24 Apr 23:34:08 23:38:51 31° 110° (ESE) 23:43:35 437.095 MHz 1200 baud AX-25 AFSK
Oscar 11 24 Apr 23:44:40 23:47:21 16° 268° (W) 23:50:04 145.825 FM, Beacon 2401.500 USB
FUNcube-1 24 Apr 23:50:35 23:54:30 39° 262° (W) 23:58:26 145.950 - 145.970 MHz USB
SO-50 25 Apr 00:15:38 00:20:12 55° 241° (WSW) 00:24:48 436.795 FM
PCSat 25 Apr 00:17:36 00:22:59 79° 118° (ESE) 00:28:26 145.825 MHz
UOSAT-12 25 Apr 00:25:55 00:29:10 18° 40° (NE) 00:32:25 437.025 FM, 437.400 FM
Sapphire 25 Apr 01:17:06 01:22:09 39° 308° (NW) 01:27:14 437.095 MHz 1200 baud AX-25 AFSK
KITSAT 1 25 Apr 01:49:01 01:56:13 37° 108° (ESE) 02:03:27 435.175 FM
PCSat 25 Apr 02:03:15 02:07:03 19° 317° (NW) 02:10:53 145.825 MHz
UOSAT-12 25 Apr 02:05:09 02:09:53 76° 239° (WSW) 02:14:33 437.025 FM, 437.400 FM
Uribyol 2 25 Apr 02:23:39 02:26:04 13° 90° (E) 02:28:27 436.500 FM
OPAL 25 Apr 03:02:35 03:07:31 56° 69° (ENE) 03:12:33 ?
Oscar 19 25 Apr 03:05:13 03:10:23 61° 101° (E) 03:15:31 437.125 CW, 437.150 USB
AO-27 25 Apr 03:05:17 03:09:55 32° 97° (E) 03:14:31 436.795 MHz FM
ITAMSAT 1 25 Apr 03:14:15 03:19:04 38° 98° (E) 03:23:52 435.822 SSB
Oscar 16 25 Apr 03:14:34 03:19:48 80° 103° (ESE) 03:24:59 437.025 USB, Beacon 2401.1428
Gurwin Techsat 1B 25 Apr 03:32:21 03:36:02 19° 92° (E) 03:39:41 435.225 FM
KITSAT 1 25 Apr 03:43:25 03:51:20 54° 308° (NW) 03:59:18 435.175 FM
AO-Echo 25 Apr 03:58:56 04:03:42 85° 104° (ESE) 04:08:23 ?
Uribyol 2 25 Apr 04:00:54 04:06:05 75° 286° (WNW) 04:11:15 436.500 FM
TMSAT-1 25 Apr 04:15:48 04:20:35 34° 96° (E) 04:25:21 436.925 FM
Uosat F 25 Apr 04:24:34 04:26:56 13° 90° (E) 04:29:16 435.120 FM
JAS-1B 25 Apr 04:38:29 04:43:22 28° 96° (E) 04:48:33 435.800 - 435.900 CW/SSB
OPAL 25 Apr 04:43:22 04:46:45 18° 266° (W) 04:50:11 ?
AO-27 25 Apr 04:44:50 04:49:22 32° 293° (WNW) 04:53:54 436.795 MHz FM
Oscar 19 25 Apr 04:45:46 04:49:14 18° 298° (WNW) 04:52:41 437.125 CW, 437.150 USB
RS-15 25 Apr 04:49:35 04:55:52 17° 98° (E) 05:02:00 29.354 - 29.394 USB, Beacon 29.352 USB
ITAMSAT 1 25 Apr 04:54:05 04:58:23 27° 295° (WNW) 05:02:41 435.822 SSB
Oscar 16 25 Apr 04:55:47 04:58:28 14° 301° (WNW) 05:01:08 437.025 USB, Beacon 2401.1428
Gurwin Techsat 1B 25 Apr 05:11:09 05:16:20 56° 288° (WNW) 05:21:30 435.225 FM
MaSat-1 25 Apr 05:19:24 05:20:05 11° 55° (NE) 05:20:47 437.345 MHz
AO-7 25 Apr 05:31:10 05:38:57 42° 99° (E) 05:46:42 29.400 - 29.500 MHz
AO-Echo 25 Apr 05:40:20 05:41:45 11° 301° (WNW) 05:43:10 ?
KITSAT 1 25 Apr 05:43:35 05:48:48 18° 334° (NNW) 05:54:03 435.175 FM
Uribyol 2 25 Apr 05:43:56 05:44:39 10° 304° (WNW) 05:45:23 436.500 FM
STRAND 1 25 Apr 05:53:42 05:56:06 13° 59° (ENE) 05:58:30 ?
TMSAT-1 25 Apr 05:55:49 06:00:26 31° 293° (WNW) 06:05:02 436.925 FM
Uosat F 25 Apr 06:01:14 06:06:13 71° 287° (WNW) 06:11:11 435.120 FM
JAS-1B 25 Apr 06:28:58 06:34:10 39° 292° (WNW) 06:39:43 435.800 - 435.900 CW/SSB
RS-15 25 Apr 06:55:00 07:06:17 76° 118° (ESE) 07:17:13 29.354 - 29.394 USB, Beacon 29.352 USB
MaSat-1 25 Apr 06:55:26 06:58:30 47° 246° (WSW) 07:02:08 437.345 MHz
AO-40 25 Apr 07:19:27 09:49:47 20° 130° (SE) 11:06:35 Beacon 2401.320
PCSat 25 Apr 07:23:32 07:26:13 14° 37° (NE) 07:28:53 145.825 MHz
AO-7 25 Apr 07:23:58 07:31:45 47° 298° (WNW) 07:39:33 29.400 - 29.500 MHz
STRAND 1 25 Apr 07:29:29 07:34:36 83° 256° (WSW) 07:39:44 ?
KITSAT 1 25 Apr 07:45:37 07:48:21 12° 5° (N) 07:51:04 435.175 FM
PANSAT 25 Apr 07:51:06 07:52:07 11° 176° (S) 07:53:08 not established
Hamsat 25 Apr 07:57:56 08:02:20 84° 283° (WNW) 08:06:42 145.90 MHz
JAS-2 25 Apr 08:13:18 08:18:40 45° 99° (E) 08:24:38 435.800 - 435.900 CW/SSB, 435.910 FM
Sapphire 25 Apr 08:21:19 08:26:04 30° 49° (NE) 08:30:47 437.095 MHz 1200 baud AX-25 AFSK
SO-67 25 Apr 08:22:34 08:25:42 30° 97° (E) 08:28:50 435.3500 MHz FM
PCSat 25 Apr 09:05:16 09:10:42 67° 58° (ENE) 09:16:04 145.825 MHz
RS-15 25 Apr 09:09:32 09:19:39 38° 323° (NW) 09:29:38 29.354 - 29.394 USB, Beacon 29.352 USB
AO-7 25 Apr 09:20:43 09:22:28 11° 320° (NW) 09:24:12 29.400 - 29.500 MHz
KITSAT 1 25 Apr 09:41:08 09:47:26 24° 35° (NE) 09:53:42 435.175 FM
SO-67 25 Apr 09:56:27 09:58:36 16° 293° (WNW) 10:00:46 435.3500 MHz FM
JAS-2 25 Apr 09:59:00 10:03:36 27° 294° (WNW) 10:08:36 435.800 - 435.900 CW/SSB, 435.910 FM
Sapphire 25 Apr 10:04:31 10:09:38 43° 248° (WSW) 10:14:42 437.095 MHz 1200 baud AX-25 AFSK
Saudisat 1A 25 Apr 10:30:13 10:34:41 81° 122° (ESE) 10:39:10 436.775 MHz
HO-68 25 Apr 10:43:56 10:51:06 66° 103° (ESE) 10:58:14 435.675 MHz FM
PCSat 25 Apr 10:50:06 10:53:31 17° 255° (WSW) 10:56:55 145.825 MHz
RS-15 25 Apr 11:28:34 11:36:23 21° 357° (N) 11:44:12 29.354 - 29.394 USB, Beacon 29.352 USB
Oscar 11 25 Apr 11:29:59 11:34:23 89° 103° (ESE) 11:38:45 145.825 FM, Beacon 2401.500 USB
KITSAT 1 25 Apr 11:36:01 11:44:11 80° 58° (ENE) 11:52:15 435.175 FM
FUNcube-1 25 Apr 11:39:05 11:43:05 35° 98° (E) 11:47:08 145.950 - 145.970 MHz USB
Saudisat 1A 25 Apr 12:12:05 12:14:51 16° 321° (NW) 12:17:38 436.775 MHz
HO-68 25 Apr 12:32:33 12:38:14 26° 302° (WNW) 12:43:55 435.675 MHz FM
Oscar 19 25 Apr 12:46:58 12:49:02 12° 58° (ENE) 12:51:06 437.125 CW, 437.150 USB
Oscar 16 25 Apr 12:55:16 12:58:19 16° 60° (ENE) 13:01:23 437.025 USB, Beacon 2401.1428
FUNcube-1 25 Apr 13:16:01 13:19:18 21° 293° (WNW) 13:22:37 145.950 - 145.970 MHz USB
KITSAT 1 25 Apr 13:32:51 13:38:39 22° 257° (WSW) 13:44:26 435.175 FM
AO-Echo 25 Apr 13:36:01 13:38:49 15° 61° (ENE) 13:41:35 ?
Uribyol 2 25 Apr 13:41:24 13:45:18 22° 64° (ENE) 13:49:13 436.500 FM
RS-15 25 Apr 13:43:51 13:53:27 33° 32° (NNE) 14:03:09 29.354 - 29.394 USB, Beacon 29.352 USB
ISS 25 Apr 14:08:55 14:12:15 83° 145° (SE) 14:15:35 145.800 FM
Oscar 19 25 Apr 14:22:26 14:27:35 89° 76° (ENE) 14:32:48 437.125 CW, 437.150 USB
AO-27 25 Apr 14:23:43 14:28:43 51° 71° (ENE) 14:33:44 436.795 MHz FM
SO-50 25 Apr 14:31:03 14:35:17 44° 117° (ESE) 14:39:34 436.795 FM
Oscar 16 25 Apr 14:31:58 14:37:05 70° 258° (WSW) 14:42:16 437.025 USB, Beacon 2401.1428
ITAMSAT 1 25 Apr 14:32:34 14:37:39 61° 72° (ENE) 14:42:45 435.822 SSB
AO-7 25 Apr 14:43:36 14:47:19 14° 44° (NE) 14:51:02 29.400 - 29.500 MHz
Gurwin Techsat 1B 25 Apr 14:53:33 14:58:10 31° 67° (ENE) 15:02:47 435.225 FM
AO-Echo 25 Apr 15:11:51 15:17:01 73° 258° (WSW) 15:22:04 ?
OPAL 25 Apr 15:13:49 15:16:34 14° 92° (E) 15:19:17 ?
Uribyol 2 25 Apr 15:19:30 15:24:27 48° 260° (W) 15:29:27 436.500 FM
JAS-1B 25 Apr 15:24:10 15:30:24 31° 65° (ENE) 15:35:50 435.800 - 435.900 CW/SSB
TMSAT-1 25 Apr 15:36:50 15:41:58 54° 72° (ENE) 15:47:07 436.925 FM
Uosat F 25 Apr 15:37:47 15:41:28 21° 63° (ENE) 15:45:08 435.120 FM
ISS 25 Apr 15:46:36 15:49:17 22° 342° (NNW) 15:51:59 145.800 FM
RS-15 25 Apr 15:56:18 16:07:18 88° 239° (WSW) 16:18:36 29.354 - 29.394 USB, Beacon 29.352 USB
AO-27 25 Apr 16:04:48 16:08:31 20° 267° (W) 16:12:15 436.795 MHz FM
Oscar 19 25 Apr 16:06:45 16:07:38 10° 272° (W) 16:08:31 437.125 CW, 437.150 USB
SO-50 25 Apr 16:12:22 16:16:02 24° 316° (NW) 16:19:45 436.795 FM
ITAMSAT 1 25 Apr 16:14:19 16:17:33 17° 269° (W) 16:20:47 435.822 SSB
UOSAT-12 25 Apr 16:17:09 16:21:05 30° 114° (ESE) 16:25:07 437.025 FM, 437.400 FM
AO-7 25 Apr 16:30:20 16:38:22 58° 65° (ENE) 16:46:25 29.400 - 29.500 MHz
Gurwin Techsat 1B 25 Apr 16:33:15 16:38:02 34° 263° (W) 16:42:52 435.225 FM
